Location: Ciserano
(45.5833°N, 9.6000°E)
Time: 23:40:33
(UTC+00:00)

FALCON 9 DEB - Pass Details

Date: 20 June 2021
Orbit: 364 x 377 km, 53.0° (Epoch: 26 July)

Event Time Altitude Azimuth Distance (km) Brightness Sun altitude
Rises 22:17:18 0° 273° (W) 2,260 7.0 -19.4°
Reaches altitude 10° 22:19:34 10° 287° (WNW) 1,410 6.1 -19.5°
Maximum altitude 22:22:16 25° 346° (NNW) 816 5.3 -19.6°
Drops below altitude 10° 22:24:59 10° 45° (NE) 1,414 6.1 -19.7°
Sets 22:27:15 0° 59° (ENE) 2,268 7.0 -19.8°
